K4MDI Weather Reports


Display with metric or nautical units.
time (UTC)temp
F
wind
direction
speed
MPH
gust
MPH
rain 1hr
in
rain 24hr
in
rain mn
in
humidity
%
barometer
mb
20260504140520 64 0.0 5.0 0.00 0.00 0.00 62 1017.4
20260504130520 53 0.0 0.0 0.00 0.00 0.00 83 1017.3
20260504110519 40 0.0 0.0 0.00 0.00 0.00 94 1017.1
20260504100520 41 0.0 0.0 0.00 0.00 0.00 93 1016.6
20260504081020 45 0.0 0.0 0.00 0.00 0.00 79 1016.6
20260504050119 50 0.0 0.0 0.00 0.00 0.00 74 1017.1
20260504045019 50 0.0 0.0 0.00 0.00 0.00 72 1016.9
20260504044019 50 0.0 0.0 0.00 0.00 0.00 72 1016.7
20260504043039 51 0.0 0.0 0.00 0.00 0.00 72 1016.7
20260504042019 51 0.0 0.0 0.00 0.00 0.00 71 1016.8
20260504041019 51 0.0 0.0 0.00 0.00 0.00 71 1016.9
20260504040019 51 0.0 0.0 0.00 0.00 0.01 71 1016.9
20260504035039 51 0.0 0.0 0.00 0.00 0.01 70 1016.9
20260504034039 52 0.0 0.0 0.00 0.00 0.01 68 1016.9
20260504033039 53 0.0 0.0 0.00 0.00 0.01 69 1016.8
20260504032019 53 0.0 0.0 0.00 0.00 0.01 69 1016.7
20260504031019 53 0.0 1.0 0.00 0.00 0.01 69 1016.8
20260504030019 53 0.0 0.0 0.00 0.00 0.01 68 1016.7
20260504025019 54 0.0 1.0 0.00 0.00 0.01 67 1016.7
20260504024019 53 0.0 1.0 0.00 0.00 0.01 69 1016.6
20260504023019 53 0.0 1.0 0.00 0.00 0.01 71 1016.5
20260504022019 54 0.0 0.0 0.00 0.00 0.01 71 1016.5
20260504021039 53 0.0 1.0 0.00 0.00 0.01 74 1016.4
20260504020019 53 0.0 0.0 0.00 0.00 0.01 72 1016.1
20260504015019 53 0.0 0.0 0.00 0.00 0.01 70 1015.9
20260504014019 54 0.0 0.0 0.00 0.00 0.01 68 1015.8
20260504013018 54 0.0 0.0 0.00 0.00 0.01 67 1015.4
20260504012019 55 0.0 0.0 0.00 0.00 0.01 65 1015.4
20260504011019 55 0.0 0.0 0.00 0.00 0.01 63 1015.3
20260504010019 56 0.0 0.0 0.00 0.00 0.01 63 1015.2
20260504005019 57 0.0 0.0 0.00 0.00 0.01 61 1015.2
20260504004019 58 0.0 0.0 0.00 0.00 0.01 59 1015.1
20260504003019 59 0.0 0.0 0.00 0.00 0.01 59 1014.9
20260504002039 60 0.0 0.0 0.00 0.00 0.01 58 1014.8
20260504001058 61 0.0 1.0 0.00 0.00 0.01 58 1014.7
20260504000019 63 0.0 0.0 0.00 0.00 0.01 56 1014.6
20260503235019 64 0.0 1.0 0.00 0.00 0.01 55 1014.5
20260503234019 66 0.0 1.0 0.00 0.00 0.01 49 1014.6
20260503233018 67 0.0 2.0 0.00 0.00 0.01 45 1014.6
20260503232038 68 0.0 2.0 0.00 0.00 0.01 45 1014.6
20260503231019 68 90 1.0 5.0 0.00 0.00 0.01 40 1014.6
20260503230018 68 0.0 2.0 0.00 0.00 0.01 41 1014.8
20260503225018 69 0.0 1.0 0.00 0.00 0.01 43 1014.7
20260503224018 70 113 1.0 3.0 0.00 0.00 0.01 41 1014.8
20260503223019 70 0.0 2.0 0.00 0.00 0.01 39 1014.9
20260503222019 70 90 1.0 3.0 0.00 0.00 0.01 43 1014.9
20260503221018 71 0.0 1.0 0.00 0.00 0.01 36 1014.9
20260503220018 71 113 1.0 2.0 0.00 0.00 0.01 40
20260503215018 71 0.0 3.0 0.00 0.00 0.01 39
20260503214019 72 90 1.0 3.0 0.00 0.00 0.01 35
20260503213018 72 90 1.0 4.0 0.00 0.00 0.01 36
20260503212018 72 113 1.0 8.0 0.00 0.00 0.01 37
20260503211038 72 90 1.0 4.0 0.00 0.00 0.01 35
20260503210019 73 0.0 1.0 0.00 0.00 0.01 38 1015.6
20260503205018 73 90 1.0 5.0 0.00 0.00 0.01 36 1015.9
20260503204019 73 90 1.0 3.0 0.00 0.00 0.01 39 1015.9
20260503203038 72 0.0 2.0 0.00 0.00 0.01 37 1016.1
20260503202019 73 90 1.0 3.0 0.00 0.00 0.01 37 1016.4
20260503201018 72 90 1.0 2.0 0.00 0.00 0.01 38 1016.5
20260503200018 72 90 1.0 3.0 0.00 0.00 0.01 39 1016.8
20260503195020 71 68 1.0 4.0 0.00 0.00 0.01 38 1017.0
20260503194018 71 90 1.0 6.0 0.00 0.00 0.01 38 1017.2
20260503193018 71 90 1.0 5.0 0.00 0.00 0.01 42 1017.5
20260503192018 70 90 2.0 8.0 0.00 0.00 0.01 40 1017.7
20260503191020 70 90 1.0 3.0 0.00 0.00 0.01 36 1017.8
20260503190018 70 90 1.0 4.0 0.00 0.00 0.01 39 1017.9
20260503185018 69 90 1.0 7.0 0.00 0.00 0.01 40 1018.2
20260503184020 70 113 1.0 4.0 0.00 0.00 0.01 44 1018.3
20260503183018 69 68 1.0 6.0 0.00 0.00 0.01 44 1018.3
20260503182018 69 90 1.0 2.0 0.00 0.00 0.01 41 1018.4
20260503181018 68 90 1.0 8.0 0.00 0.00 0.01 40 1018.4
20260503180020 68 0.0 3.0 0.00 0.00 0.01 44 1018.4
20260503175018 67 90 1.0 3.0 0.00 0.00 0.01 42 1018.6
20260503174020 67 90 1.0 6.0 0.00 0.00 0.01 43 1018.7
20260503173018 67 90 1.0 3.0 0.00 0.00 0.01 46 1018.7
20260503172018 68 0.0 2.0 0.00 0.00 0.01 42 1019.0
20260503171020 67 90 1.0 3.0 0.00 0.00 0.01 44 1019.1